Data No, UTC Date,UTC Time,Latitude,Longitude,Course(deg),Temp(degC),Sal(psu)
748,2018/7/11,12:27,35-35.54N,139-47.09E,172,26.887,24.9779
749,2018/7/11,12:28,35-35.45N,139-47.14E,148,26.886,25.0719
750,2018/7/11,12:29,35-35.38N,139-47.21E,141,26.819,25.0588
751,2018/7/11,12:30,35-35.30N,139-47.30E,137,26.611,25.132
752,2018/7/11,12:31,35-35.19N,139-47.41E,139,26.041,25.3803
753,2018/7/11,12:32,35-35.08N,139-47.53E,138,25.629,26.1217
754,2018/7/11,12:33,35-34.95N,139-47.67E,139,25.344,26.9903
755,2018/7/11,12:34,35-34.79N,139-47.83E,139,25.267,27.7107
756,2018/7/11,12:35,35-34.62N,139-48.00E,139,25.336,28.1693
757,2018/7/11,12:36,35-34.45N,139-48.19E,139,25.316,28.1823
758,2018/7/11,12:37,35-34.27N,139-48.38E,136,25.211,28.3329
759,2018/7/11,12:38,35-34.12N,139-48.59E,130,25.056,28.6099
760,2018/7/11,12:39,35-33.97N,139-48.82E,126,25.163,29.0823
761,2018/7/11,12:40,35-33.83N,139-49.05E,125,25.365,29.2777
762,2018/7/11,12:41,35-33.69N,139-49.29E,125,25.61,29.4471
763,2018/7/11,12:42,35-33.55N,139-49.53E,125,25.753,29.4454
764,2018/7/11,12:43,35-33.41N,139-49.77E,124,25.759,29.375
765,2018/7/11,12:44,35-33.28N,139-50.01E,124,25.992,29.1373
766,2018/7/11,12:45,35-33.14N,139-50.26E,123,26.157,28.6303
767,2018/7/11,12:46,35-32.97N,139-50.52E,134,26.407,28.0084
768,2018/7/11,12:47,35-32.73N,139-50.67E,162,26.487,27.8956
769,2018/7/11,12:48,35-32.47N,139-50.69E,178,26.403,27.2411
770,2018/7/11,12:49,35-32.19N,139-50.70E,178,26.609,27.6436
771,2018/7/11,12:50,35-31.89N,139-50.71E,178,26.499,28.41
772,2018/7/11,12:51,35-31.60N,139-50.71E,178,26.478,28.954
773,2018/7/11,12:52,35-31.30N,139-50.72E,178,26.763,29.0982
774,2018/7/11,12:53,35-31.00N,139-50.72E,181,26.858,29.1901
775,2018/7/11,12:54,35-30.69N,139-50.70E,183,26.693,29.2171
776,2018/7/11,12:55,35-30.38N,139-50.67E,184,26.649,29.2228
777,2018/7/11,12:56,35-30.07N,139-50.64E,184,26.559,29.2871
778,2018/7/11,12:57,35-29.77N,139-50.57E,196,27.128,29.3827
779,2018/7/11,12:58,35-29.50N,139-50.40E,211,27.411,29.4224
780,2018/7/11,12:59,35-29.27N,139-50.15E,225,27.32,29.4148
781,2018/7/11,13:00,35-29.05N,139-49.88E,224,26.234,29.4791
782,2018/7/11,13:01,35-28.82N,139-49.62E,223,26.262,29.7503
783,2018/7/11,13:02,35-28.59N,139-49.35E,223,26.383,29.882
784,2018/7/11,13:03,35-28.36N,139-49.08E,224,26.249,30.0185
785,2018/7/11,13:04,35-28.16N,139-48.78E,232,26.474,30.161
786,2018/7/11,13:05,35-27.97N,139-48.48E,231,26.2,30.1672
787,2018/7/11,13:06,35-27.77N,139-48.18E,231,26.193,30.2707
788,2018/7/11,13:07,35-27.57N,139-47.87E,231,26.181,30.3352
789,2018/7/11,13:08,35-27.38N,139-47.57E,231,26.324,30.406
790,2018/7/11,13:09,35-27.18N,139-47.26E,232,26.379,30.4292
791,2018/7/11,13:10,35-26.99N,139-46.96E,232,26.333,30.4768
792,2018/7/11,13:11,35-26.80N,139-46.65E,232,26.235,30.5811
793,2018/7/11,13:12,35-26.61N,139-46.34E,232,26.172,30.6219
794,2018/7/11,13:13,35-26.42N,139-46.04E,232,26.21,30.6611
795,2018/7/11,13:14,35-26.23N,139-45.74E,232,26.228,30.7037
796,2018/7/11,13:15,35-26.04N,139-45.43E,232,26.096,30.7328
797,2018/7/11,13:16,35-25.84N,139-45.11E,232,26.145,30.7783
798,2018/7/11,13:17,35-25.66N,139-44.81E,232,26.034,30.775
799,2018/7/11,13:18,35-25.46N,139-44.50E,232,26.069,30.7992
800,2018/7/11,13:19,35-25.27N,139-44.19E,232,26.067,30.7651
801,2018/7/11,13:20,35-25.07N,139-43.88E,232,26.044,30.6658
802,2018/7/11,13:21,35-24.88N,139-43.57E,232,26.046,30.5741
803,2018/7/11,13:22,35-24.68N,139-43.28E,223,26.003,30.4994
804,2018/7/11,13:23,35-24.40N,139-43.10E,204,25.775,30.4791
805,2018/7/11,13:24,35-24.12N,139-42.94E,205,25.499,30.4472
806,2018/7/11,13:25,35-23.84N,139-42.78E,205,25.042,30.641
807,2018/7/11,13:26,35-23.55N,139-42.61E,205,24.836,30.8677
808,2018/7/11,13:27,35-23.26N,139-42.45E,205,24.701,31.0245
809,2018/7/11,13:28,35-22.96N,139-42.34E,189,24.807,31.1584
810,2018/7/11,13:29,35-22.64N,139-42.34E,177,24.879,31.2141
811,2018/7/11,13:30,35-22.33N,139-42.37E,176,24.982,31.1521
812,2018/7/11,13:31,35-22.02N,139-42.40E,176,24.933,31.1212
813,2018/7/11,13:32,35-21.70N,139-42.42E,175,24.864,31.0737
814,2018/7/11,13:33,35-21.40N,139-42.44E,176,25.07,31.1458
815,2018/7/11,13:34,35-21.14N,139-42.47E,176,25.068,31.1487
816,2018/7/11,13:35,35-20.88N,139-42.49E,175,25.18,31.163
817,2018/7/11,13:36,35-20.65N,139-42.51E,175,25.186,31.1622
818,2018/7/11,13:37,35-20.42N,139-42.53E,174,25.265,31.1652
819,2018/7/11,13:38,35-20.20N,139-42.56E,175,25.294,31.164
820,2018/7/11,13:39,35-19.98N,139-42.58E,173,25.358,31.2035
821,2018/7/11,13:40,35-19.78N,139-42.65E,157,25.484,31.2326
822,2018/7/11,13:41,35-19.60N,139-42.78E,149,25.413,31.4071
823,2018/7/11,13:42,35-19.42N,139-42.92E,147,25.629,31.5768
824,2018/7/11,13:43,35-19.23N,139-43.06E,148,25.456,31.6311
825,2018/7/11,13:44,35-19.05N,139-43.20E,146,25.34,31.7199
826,2018/7/11,13:45,35-18.87N,139-43.35E,146,25.442,31.7692
827,2018/7/11,13:46,35-18.69N,139-43.49E,147,25.338,31.717
828,2018/7/11,13:47,35-18.51N,139-43.63E,147,25.115,31.6796
829,2018/7/11,13:48,35-18.32N,139-43.77E,147,24.996,31.7194
830,2018/7/11,13:49,35-18.15N,139-43.92E,144,25.063,31.758
831,2018/7/11,13:50,35-17.97N,139-44.07E,145,25.001,31.7271
832,2018/7/11,13:51,35-17.80N,139-44.22E,143,24.813,31.7238
833,2018/7/11,13:52,35-17.63N,139-44.38E,141,23.762,31.7569
834,2018/7/11,13:53,35-17.46N,139-44.55E,142,24.005,31.9737
835,2018/7/11,13:54,35-17.30N,139-44.71E,140,24.25,32.0479
836,2018/7/11,13:55,35-17.13N,139-44.88E,139,24.121,32.0355
837,2018/7/11,13:56,35-16.97N,139-45.04E,140,24.5,32.1057
838,2018/7/11,13:57,35-16.81N,139-45.20E,143,24.473,32.0643
839,2018/7/11,13:58,35-16.63N,139-45.36E,145,24.281,32.0176
840,2018/7/11,13:59,35-16.45N,139-45.51E,144,24.094,32.0187
841,2018/7/11,14:00,35-16.28N,139-45.66E,143,23.738,32.0239
842,2018/7/11,14:01,35-16.11N,139-45.82E,142,23.94,32.0822
843,2018/7/11,14:02,35-15.94N,139-45.98E,143,24.12,32.1165
844,2018/7/11,14:03,35-15.76N,139-46.14E,143,23.89,32.031
845,2018/7/11,14:04,35-15.57N,139-46.27E,154,23.871,32.0502
846,2018/7/11,14:05,35-15.37N,139-46.34E,168,23.982,32.0912
847,2018/7/11,14:06,35-15.15N,139-46.37E,176,23.978,32.0452
848,2018/7/11,14:07,35-14.93N,139-46.38E,178,23.906,32.0187
849,2018/7/11,14:08,35-14.71N,139-46.39E,179,23.976,31.9844
850,2018/7/11,14:09,35-14.50N,139-46.39E,178,24.048,31.9875
851,2018/7/11,14:10,35-14.28N,139-46.39E,179,24.07,32.0372
852,2018/7/11,14:11,35-14.06N,139-46.40E,179,24.074,32.0496
853,2018/7/11,14:12,35-13.84N,139-46.40E,179,24.085,32.0623
854,2018/7/11,14:13,35-13.63N,139-46.41E,179,24.177,32.0674
855,2018/7/11,14:14,35-13.41N,139-46.42E,178,24.293,32.0581
856,2018/7/11,14:15,35-13.20N,139-46.42E,178,24.591,32.0089
857,2018/7/11,14:16,35-12.98N,139-46.42E,182,24.771,32.0086
858,2018/7/11,14:17,35-12.77N,139-46.37E,194,24.972,32.0204
859,2018/7/11,14:18,35-12.54N,139-46.30E,194,25.05,31.9858
860,2018/7/11,14:19,35-12.30N,139-46.22E,193,25.006,31.9838
861,2018/7/11,14:20,35-12.03N,139-46.15E,193,25.066,32.0214
862,2018/7/11,14:21,35-11.76N,139-46.06E,194,25.015,32.0768
863,2018/7/11,14:22,35-11.48N,139-45.98E,194,25.152,32.2174
864,2018/7/11,14:23,35-11.19N,139-45.88E,195,25.449,32.4565
865,2018/7/11,14:24,35-10.90N,139-45.78E,195,25.645,32.662
866,2018/7/11,14:25,35-10.61N,139-45.68E,196,25.539,32.8191
867,2018/7/11,14:26,35-10.33N,139-45.57E,196,25.362,32.973
868,2018/7/11,14:27,35-10.04N,139-45.47E,196,25.089,33.1208
869,2018/7/11,14:28,35-09.76N,139-45.37E,196,24.861,33.2328
870,2018/7/11,14:29,35-09.47N,139-45.27E,196,24.842,33.448
871,2018/7/11,14:30,35-09.18N,139-45.17E,195,24.904,33.5846
872,2018/7/11,14:31,35-08.90N,139-45.08E,193,24.931,33.6546
873,2018/7/11,14:32,35-08.61N,139-45.01E,191,24.944,33.714
874,2018/7/11,14:33,35-08.32N,139-44.93E,191,24.919,33.7746
875,2018/7/11,14:34,35-08.03N,139-44.85E,193,24.892,33.8009
876,2018/7/11,14:35,35-07.74N,139-44.76E,197,24.983,33.8321
877,2018/7/11,14:36,35-07.46N,139-44.63E,201,24.904,33.8432
878,2018/7/11,14:37,35-07.18N,139-44.50E,200,24.65,33.8442
879,2018/7/11,14:38,35-06.90N,139-44.37E,200,24.576,33.8438
880,2018/7/11,14:39,35-06.62N,139-44.27E,195,24.437,33.8366
881,2018/7/11,14:40,35-06.33N,139-44.17E,194,24.397,33.8054
882,2018/7/11,14:41,35-06.04N,139-44.09E,193,24.47,33.774
883,2018/7/11,14:42,35-05.76N,139-44.00E,194,24.579,33.7297
884,2018/7/11,14:43,35-05.46N,139-43.91E,194,24.651,33.7943
885,2018/7/11,14:44,35-05.18N,139-43.82E,194,24.461,33.8362
886,2018/7/11,14:45,35-04.90N,139-43.72E,195,24.361,33.8443
887,2018/7/11,14:46,35-04.61N,139-43.63E,195,24.301,33.8465
888,2018/7/11,14:47,35-04.31N,139-43.53E,195,24.307,33.8675
889,2018/7/11,14:48,35-04.02N,139-43.43E,195,24.359,33.8718
890,2018/7/11,14:49,35-03.74N,139-43.34E,195,24.31,33.8833
891,2018/7/11,14:50,35-03.45N,139-43.24E,195,24.3,33.9031
892,2018/7/11,14:51,35-03.16N,139-43.14E,195,24.265,33.9218
893,2018/7/11,14:52,35-02.86N,139-43.04E,195,24.331,33.9302
894,2018/7/11,14:53,35-02.57N,139-42.95E,194,24.435,33.9291
895,2018/7/11,14:54,35-02.28N,139-42.85E,195,24.313,33.9276
896,2018/7/11,14:55,35-01.99N,139-42.76E,194,24.397,33.9272
897,2018/7/11,14:56,35-01.70N,139-42.67E,194,24.39,33.9239
898,2018/7/11,14:57,35-01.41N,139-42.58E,194,24.45,33.9021
899,2018/7/11,14:58,35-01.11N,139-42.49E,192,24.536,33.8709
900,2018/7/11,14:59,35-00.82N,139-42.42E,191,24.675,33.841
901,2018/7/11,15:00,35-00.53N,139-42.35E,191,24.906,33.8185
902,2018/7/11,15:01,35-00.23N,139-42.28E,190,24.949,33.7728
903,2018/7/11,15:02,34-59.94N,139-42.22E,190,24.916,33.7472
904,2018/7/11,15:03,34-59.65N,139-42.16E,187,25.042,33.7681
905,2018/7/11,15:04,34-59.36N,139-42.14E,181,24.938,33.7671
906,2018/7/11,15:05,34-59.06N,139-42.15E,178,24.714,33.7535
907,2018/7/11,15:06,34-58.77N,139-42.18E,173,24.264,33.7805
908,2018/7/11,15:07,34-58.48N,139-42.24E,167,24.031,33.8333
909,2018/7/11,15:08,34-58.20N,139-42.35E,161,24.47,33.8705
910,2018/7/11,15:09,34-57.92N,139-42.47E,158,24.753,33.8718
911,2018/7/11,15:10,34-57.65N,139-42.64E,150,24.204,33.8649
912,2018/7/11,15:11,34-57.40N,139-42.84E,145,24.891,33.8836
913,2018/7/11,15:12,34-57.14N,139-43.06E,145,24.836,33.8632
914,2018/7/11,15:13,34-56.89N,139-43.29E,143,24.812,33.833
915,2018/7/11,15:14,34-56.62N,139-43.52E,143,24.849,33.8314
916,2018/7/11,15:15,34-56.37N,139-43.75E,143,24.622,33.8185
917,2018/7/11,15:16,34-56.12N,139-43.99E,141,24.285,33.8316
918,2018/7/11,15:17,34-55.87N,139-44.23E,140,24.894,33.8357
919,2018/7/11,15:18,34-55.62N,139-44.48E,141,25.011,33.7981
920,2018/7/11,15:19,34-55.36N,139-44.72E,142,25.083,33.7632
921,2018/7/11,15:20,34-55.11N,139-44.96E,142,24.946,33.6903
922,2018/7/11,15:21,34-54.85N,139-45.20E,142,25.06,33.667
923,2018/7/11,15:22,34-54.60N,139-45.44E,142,24.989,33.648
924,2018/7/11,15:23,34-54.33N,139-45.68E,142,24.921,33.6361
925,2018/7/11,15:24,34-54.08N,139-45.93E,141,24.861,33.6645
926,2018/7/11,15:25,34-53.83N,139-46.17E,141,24.713,33.7025
927,2018/7/11,15:26,34-53.57N,139-46.41E,142,24.762,33.6999
928,2018/7/11,15:27,34-53.31N,139-46.64E,146,24.771,33.6748
929,2018/7/11,15:28,34-53.04N,139-46.84E,147,24.623,33.6326
930,2018/7/11,15:29,34-52.77N,139-47.06E,147,24.575,33.6033
931,2018/7/11,15:30,34-52.49N,139-47.28E,145,24.598,33.619
932,2018/7/11,15:31,34-52.23N,139-47.52E,141,24.692,33.6402
933,2018/7/11,15:32,34-51.97N,139-47.79E,138,24.717,33.6714
934,2018/7/11,15:33,34-51.73N,139-48.06E,136,24.716,33.6937
935,2018/7/11,15:34,34-51.50N,139-48.35E,132,24.651,33.7011
936,2018/7/11,15:35,34-51.30N,139-48.68E,122,24.522,33.7193
937,2018/7/11,15:36,34-51.17N,139-49.04E,111,24.408,33.735
938,2018/7/11,15:37,34-51.09N,139-49.41E,100,24.055,33.7334
939,2018/7/11,15:38,34-51.05N,139-49.79E,96,23.981,33.7909
940,2018/7/11,15:39,34-51.03N,139-50.18E,94,24.051,33.8323
941,2018/7/11,15:40,34-51.02N,139-50.56E,90,23.318,33.8355
942,2018/7/11,15:41,34-51.02N,139-50.93E,88,23.138,33.8853
943,2018/7/11,15:42,34-51.04N,139-51.29E,86,22.798,33.908
944,2018/7/11,15:43,34-51.06N,139-51.66E,85,22.157,33.9271
945,2018/7/11,15:44,34-51.08N,139-52.03E,86,22.24,33.961
946,2018/7/11,15:45,34-51.09N,139-52.40E,86,22.912,33.9816
947,2018/7/11,15:46,34-51.11N,139-52.76E,86,23.346,33.9761
948,2018/7/11,15:47,34-51.13N,139-53.12E,85,23.527,33.9576
949,2018/7/11,15:48,34-51.17N,139-53.48E,82,23.586,33.949
950,2018/7/11,15:49,34-51.20N,139-53.84E,84,23.696,33.9433
951,2018/7/11,15:50,34-51.22N,139-54.21E,85,23.589,33.9485
952,2018/7/11,15:51,34-51.25N,139-54.57E,84,23.561,33.9557
953,2018/7/11,15:52,34-51.28N,139-54.93E,84,23.806,33.9555
954,2018/7/11,15:53,34-51.31N,139-55.30E,83,23.947,33.9496
955,2018/7/11,15:54,34-51.34N,139-55.67E,83,24.235,33.9485
956,2018/7/11,15:55,34-51.38N,139-56.03E,83,24.422,33.9404
957,2018/7/11,15:56,34-51.41N,139-56.40E,83,24.343,33.9347
958,2018/7/11,15:57,34-51.45N,139-56.77E,82,24.22,33.9395
959,2018/7/11,15:58,34-51.49N,139-57.14E,83,24.403,33.9512
960,2018/7/11,15:59,34-51.54N,139-57.51E,78,24.433,33.9436
961,2018/7/11,16:00,34-51.61N,139-57.87E,73,24.408,33.931
962,2018/7/11,16:01,34-51.72N,139-58.22E,68,24.169,33.9288
963,2018/7/11,16:02,34-51.84N,139-58.56E,66,23.866,33.9383
964,2018/7/11,16:03,34-51.97N,139-58.91E,65,23.878,33.9571
965,2018/7/11,16:04,34-52.09N,139-59.26E,66,23.709,33.9669
966,2018/7/11,16:05,34-52.22N,139-59.61E,66,23.551,33.9735
967,2018/7/11,16:06,34-52.35N,139-59.95E,65,23.555,33.986
968,2018/7/11,16:07,34-52.49N,140-00.29E,64,23.556,33.9948
969,2018/7/11,16:08,34-52.62N,140-00.63E,64,23.38,33.9931
970,2018/7/11,16:09,34-52.76N,140-00.97E,64,23.281,34.001
971,2018/7/11,16:10,34-52.90N,140-01.31E,62,23.464,34.0052
972,2018/7/11,16:11,34-53.06N,140-01.64E,59,23.06,34.0055
973,2018/7/11,16:12,34-53.22N,140-01.96E,57,22.673,34.0027
974,2018/7/11,16:13,34-53.39N,140-02.28E,57,22.565,34.0071
975,2018/7/11,16:14,34-53.56N,140-02.60E,57,22.605,34.0048
976,2018/7/11,16:15,34-53.72N,140-02.91E,57,22.817,34.002
977,2018/7/11,16:16,34-53.89N,140-03.24E,57,22.996,33.9975
978,2018/7/11,16:17,34-54.06N,140-03.56E,57,23.125,33.9911
979,2018/7/11,16:18,34-54.23N,140-03.88E,57,22.931,33.9866
980,2018/7/11,16:19,34-54.40N,140-04.20E,56,22.859,33.9894
981,2018/7/11,16:20,34-54.57N,140-04.51E,56,22.985,33.9841
982,2018/7/11,16:21,34-54.74N,140-04.82E,57,23.05,33.9555
983,2018/7/11,16:22,34-54.90N,140-05.13E,56,22.904,33.9374
984,2018/7/11,16:23,34-55.07N,140-05.43E,56,22.9,33.928
985,2018/7/11,16:24,34-55.24N,140-05.74E,55,22.732,33.9202
986,2018/7/11,16:25,34-55.41N,140-06.04E,56,22.707,33.9271
987,2018/7/11,16:26,34-55.57N,140-06.34E,57,22.58,33.9121
988,2018/7/11,16:27,34-55.74N,140-06.64E,55,22.572,33.9144
989,2018/7/11,16:28,34-55.90N,140-06.94E,57,22.802,33.941
990,2018/7/11,16:29,34-56.07N,140-07.25E,55,22.65,33.9447
991,2018/7/11,16:30,34-56.23N,140-07.55E,55,22.956,33.9591
992,2018/7/11,16:31,34-56.40N,140-07.85E,55,23.13,33.9352
993,2018/7/11,16:32,34-56.56N,140-08.15E,58,22.827,33.905
994,2018/7/11,16:33,34-56.72N,140-08.47E,59,22.224,33.9124
995,2018/7/11,16:34,34-56.86N,140-08.78E,59,22.238,33.9386
996,2018/7/11,16:35,34-57.01N,140-09.09E,59,22.222,33.9466
997,2018/7/11,16:36,34-57.17N,140-09.40E,58,22.301,33.9458
998,2018/7/11,16:37,34-57.32N,140-09.72E,59,22.354,33.9446
999,2018/7/11,16:38,34-57.48N,140-10.03E,58,22.48,33.9447
1000,2018/7/11,16:39,34-57.63N,140-10.34E,59,22.599,33.9475
1001,2018/7/11,16:40,34-57.78N,140-10.65E,59,22.508,33.9503
1002,2018/7/11,16:41,34-57.94N,140-10.97E,59,22.552,33.9572
1003,2018/7/11,16:42,34-58.09N,140-11.29E,59,22.753,33.9742
1004,2018/7/11,16:43,34-58.25N,140-11.61E,58,22.443,33.9759
1005,2018/7/11,16:44,34-58.39N,140-11.93E,63,22.382,33.9853
1006,2018/7/11,16:45,34-58.52N,140-12.27E,66,22.466,33.9979
1007,2018/7/11,16:46,34-58.63N,140-12.61E,67,22.448,33.994
1008,2018/7/11,16:47,34-58.75N,140-12.95E,67,22.661,33.9948
1009,2018/7/11,16:48,34-58.87N,140-13.28E,67,22.744,33.9948
1010,2018/7/11,16:49,34-58.99N,140-13.62E,66,22.896,33.9878
1011,2018/7/11,16:50,34-59.11N,140-13.95E,66,23.116,33.9895
1012,2018/7/11,16:51,34-59.23N,140-14.29E,67,23.217,33.9772
1013,2018/7/11,16:52,34-59.34N,140-14.62E,67,23.137,33.9732
1014,2018/7/11,16:53,34-59.46N,140-14.96E,66,22.842,33.9725
1015,2018/7/11,16:54,34-59.58N,140-15.29E,66,23.091,33.9853
1016,2018/7/11,16:55,34-59.70N,140-15.63E,67,23.134,33.9809
1017,2018/7/11,16:56,34-59.82N,140-15.96E,65,23.252,33.9732
1018,2018/7/11,16:57,34-59.94N,140-16.30E,66,23.361,33.9684
1019,2018/7/11,16:58,35-00.07N,140-16.64E,66,23.435,33.9606
1020,2018/7/11,16:59,35-00.19N,140-16.97E,66,23.24,33.9569
1021,2018/7/11,17:00,35-00.31N,140-17.30E,66,23.243,33.9598
1022,2018/7/11,17:01,35-00.43N,140-17.63E,66,23.259,33.9598
1023,2018/7/11,17:02,35-00.55N,140-17.96E,66,23.509,33.9574
1024,2018/7/11,17:03,35-00.67N,140-18.30E,65,23.634,33.9518
1025,2018/7/11,17:04,35-00.80N,140-18.63E,66,23.713,33.945
1026,2018/7/11,17:05,35-00.92N,140-18.96E,65,23.785,33.941
1027,2018/7/11,17:06,35-01.05N,140-19.30E,65,23.905,33.9376
1028,2018/7/11,17:07,35-01.18N,140-19.63E,62,23.729,33.9346
1029,2018/7/11,17:08,35-01.33N,140-19.94E,58,23.707,33.9329
1030,2018/7/11,17:09,35-01.50N,140-20.25E,56,23.363,33.9354
1031,2018/7/11,17:10,35-01.67N,140-20.56E,55,23.53,33.9407
1032,2018/7/11,17:11,35-01.85N,140-20.87E,55,23.633,33.9386
1033,2018/7/11,17:12,35-02.02N,140-21.19E,56,23.237,33.9324
1034,2018/7/11,17:13,35-02.20N,140-21.49E,54,23.205,33.9285
1035,2018/7/11,17:14,35-02.37N,140-21.80E,55,23.214,33.9377
1036,2018/7/11,17:15,35-02.55N,140-22.12E,56,23.342,33.9315
1037,2018/7/11,17:16,35-02.72N,140-22.43E,55,23.338,33.9263
1038,2018/7/11,17:17,35-02.90N,140-22.74E,54,23.364,33.9226
1039,2018/7/11,17:18,35-03.08N,140-23.05E,55,23.352,33.9211
1040,2018/7/11,17:19,35-03.25N,140-23.36E,56,23.334,33.9195
1041,2018/7/11,17:20,35-03.42N,140-23.68E,56,23.25,33.9173
1042,2018/7/11,17:21,35-03.60N,140-24.00E,55,23.249,33.915
1043,2018/7/11,17:22,35-03.78N,140-24.31E,55,23.331,33.9161
1044,2018/7/11,17:23,35-03.95N,140-24.63E,56,23.498,33.9139
1045,2018/7/11,17:24,35-04.12N,140-24.94E,56,23.267,33.9114
1046,2018/7/11,17:25,35-04.30N,140-25.26E,55,23.235,33.9092
1047,2018/7/11,17:26,35-04.48N,140-25.57E,55,23.434,33.9116
1048,2018/7/11,17:27,35-04.66N,140-25.89E,54,23.467,33.9074
1049,2018/7/11,17:28,35-04.86N,140-26.18E,47,23.547,33.901
1050,2018/7/11,17:29,35-05.08N,140-26.46E,45,23.654,33.8958
1051,2018/7/11,17:30,35-05.30N,140-26.73E,45,23.411,33.8894
1052,2018/7/11,17:31,35-05.52N,140-27.03E,49,23.018,33.8837
1053,2018/7/11,17:32,35-05.73N,140-27.33E,50,22.825,33.8916
1054,2018/7/11,17:33,35-05.93N,140-27.62E,51,22.761,33.9014
1055,2018/7/11,17:34,35-06.13N,140-27.93E,51,22.767,33.9034
1056,2018/7/11,17:35,35-06.32N,140-28.24E,52,22.696,33.9028
1057,2018/7/11,17:36,35-06.52N,140-28.54E,52,22.844,33.9031
1058,2018/7/11,17:37,35-06.72N,140-28.85E,50,23.012,33.9104
1059,2018/7/11,17:38,35-06.92N,140-29.14E,51,22.99,33.9212
1060,2018/7/11,17:39,35-07.11N,140-29.44E,53,22.95,33.925
1061,2018/7/11,17:40,35-07.29N,140-29.75E,53,22.981,33.9342
1062,2018/7/11,17:41,35-07.48N,140-30.06E,53,22.802,33.9464
1063,2018/7/11,17:42,35-07.67N,140-30.37E,52,22.721,33.9522
1064,2018/7/11,17:43,35-07.85N,140-30.67E,54,22.757,33.9628
1065,2018/7/11,17:44,35-08.04N,140-30.98E,53,22.706,33.9745
1066,2018/7/11,17:45,35-08.22N,140-31.29E,54,22.689,33.9778
1067,2018/7/11,17:46,35-08.40N,140-31.61E,55,22.315,33.9751
1068,2018/7/11,17:47,35-08.59N,140-31.92E,54,22.625,33.9978
1069,2018/7/11,17:48,35-08.77N,140-32.23E,53,22.896,34.0039
1070,2018/7/11,17:49,35-08.95N,140-32.53E,54,23.258,33.9864
1071,2018/7/11,17:50,35-09.14N,140-32.84E,54,23.271,33.9717
1072,2018/7/11,17:51,35-09.32N,140-33.14E,53,23.298,33.9585
1073,2018/7/11,17:52,35-09.51N,140-33.45E,53,23.444,33.9554
1074,2018/7/11,17:53,35-09.69N,140-33.75E,54,23.454,33.9545
1075,2018/7/11,17:54,35-09.88N,140-34.05E,50,23.607,33.9428
1076,2018/7/11,17:55,35-10.08N,140-34.34E,49,23.728,33.9449
1077,2018/7/11,17:56,35-10.29N,140-34.62E,46,23.657,33.9423
1078,2018/7/11,17:57,35-10.51N,140-34.90E,46,23.803,33.9403
1079,2018/7/11,17:58,35-10.72N,140-35.17E,46,23.847,33.9314
1080,2018/7/11,17:59,35-10.93N,140-35.46E,47,23.703,33.9171
1081,2018/7/11,18:00,35-11.15N,140-35.73E,45,23.694,33.9077
1082,2018/7/11,18:01,35-11.37N,140-36.01E,46,23.703,33.9056
1083,2018/7/11,18:02,35-11.59N,140-36.29E,46,23.62,33.8979
1084,2018/7/11,18:03,35-11.80N,140-36.57E,47,23.54,33.8862
1085,2018/7/11,18:04,35-12.02N,140-36.86E,46,23.417,33.8791
1086,2018/7/11,18:05,35-12.24N,140-37.13E,45,23.376,33.8826
1087,2018/7/11,18:06,35-12.45N,140-37.42E,48,23.114,33.885
1088,2018/7/11,18:07,35-12.67N,140-37.70E,47,22.925,33.8955
1089,2018/7/11,18:08,35-12.89N,140-37.98E,46,22.646,33.9219
1090,2018/7/11,18:09,35-13.10N,140-38.25E,47,22.321,33.9478
1091,2018/7/11,18:10,35-13.32N,140-38.53E,46,21.492,33.9898
1092,2018/7/11,18:11,35-13.53N,140-38.81E,47,22.042,34.0351
1093,2018/7/11,18:12,35-13.73N,140-39.11E,51,22.277,34.0444
1094,2018/7/11,18:13,35-13.91N,140-39.41E,54,21.436,34.0361
1095,2018/7/11,18:14,35-14.09N,140-39.71E,54,20.754,34.0486
1096,2018/7/11,18:15,35-14.26N,140-40.01E,54,20.436,34.0879
1097,2018/7/11,18:16,35-14.44N,140-40.31E,53,20.436,34.12
1098,2018/7/11,18:17,35-14.63N,140-40.58E,46,20.447,34.1226
1099,2018/7/11,18:18,35-14.85N,140-40.82E,41,20.7,34.1254
1100,2018/7/11,18:19,35-15.08N,140-41.04E,37,20.79,34.1188
1101,2018/7/11,18:20,35-15.32N,140-41.26E,36,20.781,34.116
1102,2018/7/11,18:21,35-15.55N,140-41.47E,36,21.072,34.1202
1103,2018/7/11,18:22,35-15.79N,140-41.68E,36,21.285,34.1193
1104,2018/7/11,18:23,35-16.02N,140-41.89E,36,21.447,34.1149
1105,2018/7/11,18:24,35-16.26N,140-42.11E,36,21.486,34.1094
1106,2018/7/11,18:25,35-16.49N,140-42.33E,36,21.319,34.1028
1107,2018/7/11,18:26,35-16.72N,140-42.53E,36,21.179,34.104
1108,2018/7/11,18:27,35-16.96N,140-42.74E,34,21.188,34.1115
1109,2018/7/11,18:28,35-17.21N,140-42.94E,33,21.241,34.1203
1110,2018/7/11,18:29,35-17.45N,140-43.13E,33,21.219,34.1241
1111,2018/7/11,18:30,35-17.68N,140-43.33E,33,21.057,34.1218
1112,2018/7/11,18:31,35-17.93N,140-43.52E,33,21.001,34.1316
1113,2018/7/11,18:32,35-18.17N,140-43.71E,33,20.942,34.1339
1114,2018/7/11,18:33,35-18.41N,140-43.91E,33,20.699,34.1364
1115,2018/7/11,18:34,35-18.66N,140-44.11E,34,20.71,34.1446
1116,2018/7/11,18:35,35-18.90N,140-44.31E,35,20.486,34.1446
1117,2018/7/11,18:36,35-19.13N,140-44.52E,35,20.144,34.1497
1118,2018/7/11,18:37,35-19.37N,140-44.73E,36,19.84,34.1562
1119,2018/7/11,18:38,35-19.61N,140-44.95E,37,19.511,34.1665
1120,2018/7/11,18:39,35-19.84N,140-45.18E,38,19.255,34.181
1121,2018/7/11,18:40,35-20.07N,140-45.40E,39,19.257,34.1934
1122,2018/7/11,18:41,35-20.30N,140-45.64E,40,19.346,34.1959
1123,2018/7/11,18:42,35-20.53N,140-45.88E,41,19.317,34.1944
1124,2018/7/11,18:43,35-20.75N,140-46.12E,42,19.22,34.1923
1125,2018/7/11,18:44,35-20.97N,140-46.37E,42,19.189,34.1956
1126,2018/7/11,18:45,35-21.18N,140-46.61E,43,19.326,34.2007
1127,2018/7/11,18:46,35-21.41N,140-46.86E,42,19.433,34.2007
1128,2018/7/11,18:47,35-21.62N,140-47.11E,42,20.043,34.2051
1129,2018/7/11,18:48,35-21.84N,140-47.35E,41,21.397,34.2
1130,2018/7/11,18:49,35-22.06N,140-47.58E,40,21.841,34.1715
1131,2018/7/11,18:50,35-22.28N,140-47.81E,40,21.784,34.15
1132,2018/7/11,18:51,35-22.49N,140-48.04E,40,21.6,34.1475
1133,2018/7/11,18:52,35-22.71N,140-48.27E,40,21.307,34.151
1134,2018/7/11,18:53,35-22.94N,140-48.50E,40,20.98,34.1654
1135,2018/7/11,18:54,35-23.16N,140-48.74E,40,21.274,34.178
1136,2018/7/11,18:55,35-23.38N,140-48.97E,40,21.341,34.1772
1137,2018/7/11,18:56,35-23.60N,140-49.20E,40,21.361,34.1735
1138,2018/7/11,18:57,35-23.82N,140-49.43E,40,21.701,34.1801
1139,2018/7/11,18:58,35-24.05N,140-49.66E,40,22.051,34.173
1140,2018/7/11,18:59,35-24.27N,140-49.89E,40,21.865,34.1521
1141,2018/7/11,19:00,35-24.50N,140-50.13E,40,22.015,34.1418